Regional Weather Roundup
Issued by NWS

Home | Current Version | Previous Version | Text Only | Print | Product List | Glossary Off
Versions: 1 2 3 4 5 6 7 8 9 10 11 12 13 14 15 16 17 18 19 20 21 22 23 24 25 26 27 28 29 30 31 32 33 34 35 36 37 38 39 40 41 42 43 44 45 46 47 48 49 50

269
ASUS43 KLOT 281408
RWRIL

ILLINOIS REGIONAL WEATHER ROUNDUP
NATIONAL WEATHER SERVICE CHICAGO/ROMEOVILLE IL
900 AM CDT THU APR 28 2016

NOTE: "FAIR" INDICATES FEW OR NO CLOUDS BELOW 12,000 FEET WITH NO
SIGNIFICANT WEATHER AND/OR OBSTRUCTIONS TO VISIBILITY.

* THESE STATIONS ARE NOT UNDER NWS QUALITY CONTROL. THEY ALSO MAY NOT
  REPORT WEATHER SUCH AS PRECIPITATION OR FOG.

ILZ001-002-007-009-015-016-024-281500-
NORTHWEST ILLINOIS

CITY           SKY/WX    TMP DP  RH WIND       PRES   REMARKS
MOLINE         CLOUDY    50  47  89 E13       29.80S FOG
STERLING*      CLOUDY    46  45  93 E12       29.85R
SAVANNA*       CLOUDY    47  44  88 E10       29.85R
$$

ILZ003-004-008-010-011-017-018-281500-
NORTH CENTRAL ILLINOIS

CITY           SKY/WX    TMP DP  RH WIND       PRES   REMARKS
ROCKFORD       CLOUDY    44  40  85 NE14      29.89R
FREEPORT*      CLOUDY    44  42  92 E13       29.88R
ROCHELLE*      CLOUDY    46  43  92 E12       29.86S FOG
DE KALB*       CLOUDY    45  42  92 E13       29.87R
$$

ILZ005-006-012>014-019>023-281500-
NORTHEAST ILLINOIS

CITY           SKY/WX    TMP DP  RH WIND       PRES   REMARKS
CHICAGO-OHARE  CLOUDY    44  40  85 NE12      29.86R
CHICAGO-MIDWAY CLOUDY    46  41  82 NE13      29.85R
AURORA         CLOUDY    47  43  86 E10       29.85R FOG
LANSING*       CLOUDY    47  43  88 SE10      29.84S
JOLIET*        CLOUDY    49  47  92 E5        29.84R FOG
WAUKEGAN       CLOUDY    40  35  83 NE13G21   29.90R
DUPAGE AIRPORT CLOUDY    44  40  85 NE13      29.84R
KANKAKEE*      CLOUDY    49  46  90 SE13      29.82S
WHEELING       CLOUDY    43  38  82 NE10      29.89R
MORRIS*        CLOUDY    48  46  90 E8        29.83R
ROMEOVILLE*    CLOUDY    46  44  90 E7        29.84R FOG
NORTHERLY ISL    N/A     44  41  89 NE15        N/A
NORTHERLY ISL    N/A     44  41  89 NE15        N/A
$$

LMZ740>746-281500-
SOUTHERN LAKE MICHIGAN

STATION/POSITION SKY/WX   TEMP    WIND        PRES    VSBY  WAVE
                          AIR SEA DIR/SP/G                  HT/PER
                          (F)     (DEG/KT/KT) (MB)    (MI)  (FT/S)
SOUTHERN BUOY              39 40   80/ 21/ 25 1011.7R         5/ 5
HARRISON CRIB              45      70/ 14/ 16   N/A
BURNHAM HARBOR             44      60/ 13/ 14   N/A
CALUMET HARBOR             46      70/ 12/ 15 1009.9R
BURNS HARBOR               47     140/  9/ 17 1010.5R
MICHIGAN CITY              44      90/  9/ 11   N/A
ST. JOSEPH                 45 46  140/ 16/ 19   N/A           3/ 5
$$

ILZ025>027-034>036-040-047-049-050-058-095>099-281500-
WEST-CENTRAL ILLINOIS

CITY           SKY/WX    TMP DP  RH WIND       PRES   REMARKS
QUINCY         PTSUNNY   54  49  83 W12       29.81R
GALESBURG*     CLOUDY    54  53  97 E6        29.79S
MACOMB*        CLOUDY    54  54 100 W6        29.82R
JACKSONVILLE*  FAIR      61  56  84 SW6       29.80S
PITTSFIELD*    PTSUNNY   57  53  86 SW12      29.82R
$$

ILZ028>032-037-038-041>044-048-051>054-059>061-281500-
CENTRAL ILLINOIS

CITY           SKY/WX    TMP DP  RH WIND       PRES   REMARKS
PONTIAC        CLOUDY    50  50  99 SE5       29.84R FOG
BLOOMINGTON    CLOUDY    51  51 100 NE6       29.83R FOG
DECATUR        CLOUDY    60  56  86 W8        29.80R
PEORIA         CLOUDY    53  50  89 NE6       29.81R FOG
LACON*         CLOUDY    49  47  93 E6        29.82R FOG
LINCOLN*       FAIR      59  55  86 N3        29.80R
SPRINGFIELD    FAIR      63  56  78 SW6       29.81R
TAYLORVILLE    FAIR      61  55  82 W6        29.81R
$$

ILZ033-039-045-046-055>057-062-063-281500-
EAST-CENTRAL ILLINOIS

CITY           SKY/WX    TMP DP  RH WIND       PRES   REMARKS
CHAMPAIGN      PTSUNNY   60  56  86 S6        29.79R
RANTOUL*       CLOUDY    55  55  99 NE3       29.80R FOG
MATTOON        PTSUNNY   62  58  86 S7        29.79R
PARIS*         PTSUNNY   63  59  88 S9        29.80R
$$

ILZ079-100>102-281500-
SOUTHWEST ILLINOIS

CITY           SKY/WX    TMP DP  RH WIND       PRES   REMARKS
BELLEVILLE     FAIR      65  58  77 SW9       29.82R
CAHOKIA*       FAIR      63  52  67 W10G18    29.83R
SPARTA*        FAIR      64  56  75 SW9       29.86R
$$

ILZ064>066-069>071-074>076-080>082-084>086-088>090-092>094-281500-
SOUTH-CENTRAL ILLINOIS

CITY           SKY/WX    TMP DP  RH WIND       PRES   REMARKS
CARBONDALE     FAIR      65  57  75 W9        29.85R
CAIRO*         FAIR      67  58  72 W3        29.86R
EFFINGHAM*     CLOUDY    60  60 100 SW8       29.82R
MARION         SUNNY     66  57  72 SW9       29.86S
MT. VERNON     FAIR      64  54  68 SW5       29.84R
CENTRALIA*     FAIR      65  58  79 SW6       29.82R
SALEM*         FAIR      64  57  77 W8        29.83R
METROPOLIS*    FAIR      67  60  78 CALM      29.87R
$$

ILZ067-068-072-073-078-083-087-091-281500-
SOUTHEAST ILLINOIS

CITY           SKY/WX    TMP DP  RH WIND       PRES   REMARKS
LAWRENCEVILLE  FAIR      67  62  84 SW7       29.80R
FLORA*         FAIR      65  60  81 W8        29.82R
FAIRFIELD*     FAIR      65  58  76 SW5       29.81S
HARRISBURG*    FAIR      67  56  68 W8        29.85R
ROBINSON*      CLOUDY    64  62  96 CALM      29.81R FOG
CARMI*         FAIR      66  57  73 W12       29.83R
$$

ABBREVIATIONS USED IN REMARKS
   TC - TEMPERATURE IN CELSIUS
  WCI - WIND CHILL INDEX
   HX - HEAT INDEX
  VSB - VISIBILITY
$$





USA.gov is the U.S. government's official web portal to all federal, state and local government web resources and services.